Tracking 29487 objects as of 10-Sep-2024
HD Live streaming from Space Station
objects crossing your sky now

STARLINK-5986

Track STARLINK-5986 now!
10-day predictions
STARLINK-5986 is classified as:


NORAD ID: 56452
Int'l Code: 2023-064E
Perigee: 577.1 km
Apogee: 581.3 km
Inclination: 70.0 °
Period: 96.1 minutes
Semi major axis: 6950 km
RCS: Unknown
Launch date: May 10, 2023
Source: United States (US)
Launch site: AIR FORCE WESTERN TEST RANGE (AFWTR)
Your satellite tracking list
Your tracking list is empty




NASA's NSSDC Master Catalog

Two Line Element Set (TLE):
1 56452U 23064E   24253.93487155  .00000514  00000-0  50839-4 0  9994
2 56452  69.9984  80.6451 0003010 268.5388  91.5426 14.98330276 73850
Source of the keplerian elements: AFSPC